Time,TemperatureF,DewpointF,PressureIn,WindDirection,WindDirectionDegrees,WindSpeedMPH,WindSpeedGustMPH,Humidity,HourlyPrecipIn,Conditions,Clouds,dailyrainin,SolarRadiationWatts/m^2,SoftwareType,DateUTC
2014-08-31 00:02:00,61.7,61.7,29.86,ESE,120,2.0,3.0,100,0.00,,,0.00,0,Wunderground v.1.15,2014-08-31 05:02:00,
2014-08-31 00:03:00,61.7,61.7,29.86,ESE,120,1.0,3.0,100,0.00,,,0.00,0,Wunderground v.1.15,2014-08-31 05:03:00,
2014-08-31 00:07:00,61.7,61.7,29.86,ESE,120,2.0,3.0,100,0.00,,,0.00,0,Wunderground v.1.15,2014-08-31 05:07:00,
2014-08-31 00:08:00,61.7,61.7,29.86,ESE,120,0.0,3.0,100,0.00,,,0.00,0,Wunderground v.1.15,2014-08-31 05:08:00,
2014-08-31 00:12:00,61.6,61.6,29.86,ESE,120,1.0,2.0,100,0.00,,,0.00,0,Wunderground v.1.15,2014-08-31 05:12:00,
2014-08-31 00:13:00,61.6,61.6,29.86,ESE,120,1.0,2.0,100,0.00,,,0.00,0,Wunderground v.1.15,2014-08-31 05:13:00,
2014-08-31 00:17:00,61.6,61.6,29.86,ESE,123,2.0,4.0,100,0.00,,,0.00,0,Wunderground v.1.15,2014-08-31 05:17:00,
2014-08-31 00:18:00,61.7,61.7,29.86,ESE,123,1.0,4.0,100,0.00,,,0.00,0,Wunderground v.1.15,2014-08-31 05:18:00,
2014-08-31 00:22:00,61.7,61.7,29.86,SE,126,7.0,7.0,100,0.00,,,0.00,0,Wunderground v.1.15,2014-08-31 05:22:00,
2014-08-31 00:23:00,61.7,61.7,29.86,ESE,122,2.0,7.0,100,0.00,,,0.00,0,Wunderground v.1.15,2014-08-31 05:23:00,
2014-08-31 00:24:00,61.7,61.7,29.86,SE,125,3.0,7.0,100,0.00,,,0.00,0,Wunderground v.1.15,2014-08-31 05:24:00,
2014-08-31 00:27:00,61.8,61.8,29.86,SE,134,1.0,7.0,100,0.00,,,0.00,0,Wunderground v.1.15,2014-08-31 05:27:00,
2014-08-31 00:28:00,61.8,61.8,29.86,SE,134,3.0,7.0,100,0.00,,,0.00,0,Wunderground v.1.15,2014-08-31 05:28:00,
2014-08-31 00:29:00,61.8,61.8,29.86,SE,134,1.0,7.0,100,0.00,,,0.00,0,Wunderground v.1.15,2014-08-31 05:29:00,
2014-08-31 00:32:00,61.8,61.8,29.86,ESE,121,2.0,4.0,100,0.00,,,0.00,0,Wunderground v.1.15,2014-08-31 05:32:00,
2014-08-31 00:33:00,61.8,61.8,29.85,ESE,121,1.0,4.0,100,0.00,,,0.00,0,Wunderground v.1.15,2014-08-31 05:33:00,
2014-08-31 00:34:00,61.8,61.8,29.86,SE,133,4.0,5.0,100,0.00,,,0.00,0,Wunderground v.1.15,2014-08-31 05:34:00,
2014-08-31 00:38:00,61.8,61.8,29.86,SE,133,1.0,5.0,100,0.00,,,0.00,0,Wunderground v.1.15,2014-08-31 05:38:00,
2014-08-31 00:39:00,61.8,61.8,29.86,SE,133,2.0,5.0,100,0.00,,,0.00,0,Wunderground v.1.15,2014-08-31 05:39:00,
2014-08-31 00:43:00,61.7,61.7,29.86,SE,133,0.0,3.0,100,0.00,,,0.00,0,Wunderground v.1.15,2014-08-31 05:43:00,
2014-08-31 00:44:00,61.7,61.7,29.86,SE,133,0.0,3.0,100,0.00,,,0.00,0,Wunderground v.1.15,2014-08-31 05:44:00,
2014-08-31 00:45:00,61.7,61.7,29.87,SE,133,0.0,3.0,100,0.00,,,0.00,0,Wunderground v.1.15,2014-08-31 05:45:00,
2014-08-31 00:48:00,61.7,61.7,29.86,SE,133,1.0,3.0,100,0.00,,,0.00,0,Wunderground v.1.15,2014-08-31 05:48:00,
2014-08-31 00:49:00,61.7,61.7,29.86,SE,133,1.0,3.0,100,0.00,,,0.00,0,Wunderground v.1.15,2014-08-31 05:49:00,
2014-08-31 00:50:00,61.6,61.6,29.87,SE,133,0.0,1.0,100,0.00,,,0.00,0,Wunderground v.1.15,2014-08-31 05:50:00,
2014-08-31 00:53:00,61.6,61.6,29.87,SE,133,0.0,2.0,100,0.00,,,0.00,0,Wunderground v.1.15,2014-08-31 05:53:00,
2014-08-31 00:54:00,61.6,61.6,29.87,SE,133,0.0,2.0,100,0.00,,,0.00,0,Wunderground v.1.15,2014-08-31 05:54:00,
2014-08-31 00:55:00,61.6,61.6,29.87,SE,133,1.0,2.0,100,0.00,,,0.00,0,Wunderground v.1.15,2014-08-31 05:55:00,
2014-08-31 00:58:00,61.6,61.6,29.87,SE,133,1.0,3.0,100,0.00,,,0.00,0,Wunderground v.1.15,2014-08-31 05:58:00,
2014-08-31 00:59:00,61.6,61.6,29.87,SE,133,1.0,3.0,100,0.00,,,0.00,0,Wunderground v.1.15,2014-08-31 05:59:00,
2014-08-31 01:00:00,61.6,61.6,29.87,SE,133,1.0,1.0,100,0.00,,,0.00,0,Wunderground v.1.15,2014-08-31 06:00:00,
2014-08-31 01:03:00,61.5,61.5,29.87,SE,133,2.0,2.0,100,0.00,,,0.00,0,Wunderground v.1.15,2014-08-31 06:03:00,
2014-08-31 01:04:00,61.5,61.5,29.87,SE,133,2.0,3.0,100,0.00,,,0.00,0,Wunderground v.1.15,2014-08-31 06:04:00,
2014-08-31 01:05:00,61.5,61.5,29.87,SE,133,1.0,3.0,100,0.00,,,0.00,0,Wunderground v.1.15,2014-08-31 06:05:00,
2014-08-31 01:08:00,61.5,61.5,29.87,SE,133,4.0,4.0,100,0.00,,,0.00,0,Wunderground v.1.15,2014-08-31 06:08:00,
2014-08-31 01:09:00,61.5,61.5,29.87,SE,133,0.0,4.0,100,0.00,,,0.00,0,Wunderground v.1.15,2014-08-31 06:09:00,
2014-08-31 01:10:00,61.5,61.5,29.87,SE,133,2.0,3.0,100,0.00,,,0.00,0,Wunderground v.1.15,2014-08-31 06:10:00,
2014-08-31 01:13:00,61.4,61.4,29.87,SE,133,0.0,3.0,100,0.00,,,0.00,0,Wunderground v.1.15,2014-08-31 06:13:00,
2014-08-31 01:14:00,61.4,61.4,29.87,SE,133,0.0,3.0,100,0.00,,,0.00,0,Wunderground v.1.15,2014-08-31 06:14:00,
2014-08-31 01:15:00,61.4,61.4,29.87,SE,133,0.0,3.0,100,0.00,,,0.00,0,Wunderground v.1.15,2014-08-31 06:15:00,
2014-08-31 01:18:00,61.4,61.4,29.87,SE,133,0.0,3.0,100,0.00,,,0.00,0,Wunderground v.1.15,2014-08-31 06:18:00,
2014-08-31 01:19:00,61.4,61.4,29.88,SE,133,0.0,3.0,100,0.00,,,0.00,0,Wunderground v.1.15,2014-08-31 06:19:00,
2014-08-31 01:21:00,61.4,61.4,29.87,SE,133,0.0,2.0,100,0.00,,,0.00,0,Wunderground v.1.15,2014-08-31 06:21:00,
2014-08-31 01:23:00,61.3,61.3,29.87,SE,133,0.0,2.0,100,0.00,,,0.00,0,Wunderground v.1.15,2014-08-31 06:23:00,
2014-08-31 01:24:00,61.3,61.3,29.87,SE,133,0.0,2.0,100,0.00,,,0.00,0,Wunderground v.1.15,2014-08-31 06:24:00,
2014-08-31 01:26:00,61.3,61.3,29.87,SE,133,0.0,2.0,100,0.00,,,0.00,0,Wunderground v.1.15,2014-08-31 06:26:00,
2014-08-31 01:27:00,61.3,61.3,29.88,SE,133,0.0,2.0,100,0.00,,,0.00,0,Wunderground v.1.15,2014-08-31 06:27:00,
2014-08-31 01:28:00,61.2,61.2,29.87,SE,133,0.0,2.0,100,0.00,,,0.00,0,Wunderground v.1.15,2014-08-31 06:28:00,
2014-08-31 01:29:00,61.2,61.2,29.88,SE,133,0.0,2.0,100,0.00,,,0.00,0,Wunderground v.1.15,2014-08-31 06:29:00,
2014-08-31 01:30:00,61.2,61.2,29.88,SE,133,0.0,0.0,100,0.00,,,0.00,0,Wunderground v.1.15,2014-08-31 06:30:00,
2014-08-31 01:31:00,61.2,61.2,29.88,SE,133,0.0,0.0,100,0.00,,,0.00,0,Wunderground v.1.15,2014-08-31 06:31:00,
2014-08-31 01:32:00,61.2,61.2,29.88,SE,133,0.0,0.0,100,0.00,,,0.00,0,Wunderground v.1.15,2014-08-31 06:32:00,
2014-08-31 01:33:00,61.2,61.2,29.88,SE,133,0.0,0.0,100,0.00,,,0.00,0,Wunderground v.1.15,2014-08-31 06:33:00,
2014-08-31 01:34:00,61.1,61.1,29.88,SE,133,0.0,0.0,100,0.00,,,0.00,0,Wunderground v.1.15,2014-08-31 06:34:00,
2014-08-31 01:35:00,61.1,61.1,29.88,SE,133,0.0,0.0,100,0.00,,,0.00,0,Wunderground v.1.15,2014-08-31 06:35:00,
2014-08-31 01:37:00,61.1,61.1,29.88,SE,133,0.0,0.0,100,0.00,,,0.00,0,Wunderground v.1.15,2014-08-31 06:37:00,
2014-08-31 01:38:00,61.1,61.1,29.88,SE,133,0.0,0.0,100,0.00,,,0.00,0,Wunderground v.1.15,2014-08-31 06:38:00,
2014-08-31 01:39:00,61.1,61.1,29.88,SE,133,0.0,0.0,100,0.00,,,0.00,0,Wunderground v.1.15,2014-08-31 06:39:00,
2014-08-31 01:40:00,61.1,61.1,29.88,SE,133,0.0,0.0,100,0.00,,,0.00,0,Wunderground v.1.15,2014-08-31 06:40:00,
2014-08-31 01:42:00,61.0,61.0,29.88,SE,133,0.0,0.0,100,0.00,,,0.00,0,Wunderground v.1.15,2014-08-31 06:42:00,
2014-08-31 01:44:00,61.0,61.0,29.88,SE,133,0.0,0.0,100,0.00,,,0.00,0,Wunderground v.1.15,2014-08-31 06:44:00,